Location: Wanzleben
(52.0609°N, 11.4408°E)
Time: 02:50:58
(UTC+00:00)

COSMOS 2406 - Pass Details

Date: 23 January 2021
Orbit: 841 x 865 km, 71.0° (Epoch: 05 March)

Event Time Altitude Azimuth Distance (km) Brightness Sun altitude
Rises 18:33:14 0° 327° (NNW) 3,460 6.8 -25.3°
Reaches altitude 10° 18:35:43 10° 325° (NW) 2,519 6.1 -25.7°
Maximum altitude 18:41:27 66° 245° (WSW) 945 3.5 -26.6°
Enters shadow 18:44:12 31° 173° (S) 1,464 4.3 -27.0°
